Regional Weather Roundup
Issued by NWS Portland, ME

Home | Current Version | Previous Version | Text Only | Print | Product List | Glossary On
Versions: 1 2 3 4 5 6 7 8 9 10 11 12 13 14 15 16 17 18 19 20 21 22 23 24 25 26 27 28 29 30 31 32 33 34 35 36 37 38 39 40 41 42 43 44 45 46 47 48 49 50
000
ASUS41 KGYX 051110
RWRGYX
WEATHER ROUNDUP FOR MAINE AND NEW HAMPSHIRE
NATIONAL WEATHER SERVICE GRAY ME
700 AM EDT TUE MAY 05 2015

MEZ002-005-006-010-012-015-018-020-021-024-026-027-029-051200-
MAINE

CITY           SKY/WX    TMP DP  RH WIND       PRES   REMARKS
PORTLAND       PTSUNNY   68  53  58 N7        30.11R
SANFORD        MOSUNNY   66  48  52 NW9       30.13R
BAR HARBOR     CLOUDY    63  54  72 NW6       30.05R
WISCASSET      PTSUNNY   65  50  58 VRB6      30.11R
ROCKLAND       PTSUNNY   64  52  63 NW9       30.07R
FRYEBURG       SUNNY     64  48  56 W8        30.14R
AUGUSTA        PTSUNNY   62  49  62 W7        30.12R
WATERVILLE     PTSUNNY   63  46  55 W9G18     30.09R
BANGOR         PTSUNNY   62  49  62 NW14G20   30.08R
GREENVILLE       N/A     50  42  74 NW10G18   30.09R
MILLINOCKET    MOSUNNY   59  47  64 NW15G22   30.08R
HOULTON        MOSUNNY   56  42  59 NW17G29   30.02R
PRESQUE ISLE   SUNNY     52  39  62 NW14      30.04R
FRENCHVILLE    PTSUNNY   46  35  65 W18G29    30.03R
CARIBOU        SUNNY     50  40  68 NW14      30.03R
$$

NHZ002-005-008-009-011-012-014-051200-
NEW HAMPSHIRE

CITY           SKY/WX    TMP DP  RH WIND       PRES   REMARKS
PORTSMOUTH     PTSUNNY   68  50  51 NW10      30.11R
ROCHESTER      MOSUNNY   67  52  58 NW8       30.12R
NASHUA         PTSUNNY   66  53  63 CALM      30.14R
MANCHESTER     PTSUNNY   68  50  52 NW7       30.12R
CONCORD        MOSUNNY   67  50  54 NW10      30.14R
LACONIA        SUNNY     64  46  52 NW6G17    30.14R
PLYMOUTH       CLOUDY    63  54  73 NW7       30.17R
BERLIN         PTSUNNY   54  40  59 N10       30.19R
WHITEFIELD     PTSUNNY   56  43  61 N12G21    30.19R
JAFFREY        PTSUNNY   64  51  62 N5        30.17R
KEENE          PTSUNNY   64  52  63 CALM      30.17R
LEBANON        MOSUNNY   63  49  60 VRB6      30.18R
MT WASHINGTON  FOG       36  36 100 NW54G77     N/A  VSB 0
$$

VTZ005-007-008-051200-
VERMONT

CITY           SKY/WX    TMP DP  RH WIND       PRES   REMARKS
ST JOHNSBURY     N/A     56  44  64 MISG      30.19R
MONTPELIER     MOSUNNY   55  47  74 W10       30.24R
BURLINGTON     MOSUNNY   56  48  74 N5        30.24R
$$

MAZ007-012-024-CTZ003-RIZ002-NYZ038-NYZ072-051200-
SOUTHERN NEW ENGLAND AND NY

CITY           SKY/WX    TMP DP  RH WIND       PRES   REMARKS
BOSTON         CLOUDY    67  46  47 W9        30.13R
WORCESTER      CLOUDY    64  48  56 W9        30.16R
NANTUCKET      MOSUNNY   53  47  79 SW13      30.19R
PROVIDENCE     PTSUNNY   60  47  61 S6        30.16R
HARTFORD       CLOUDY    64  47  53 S3        30.16R
ALBANY         PTSUNNY   64  53  67 NW7       30.20R
NEW YORK CITY  MOSUNNY   67  48  50 VRB3      30.16R
$$

ANZ081-ANZ082-ANZ150-NHZ014-MEZ023>029-051200-
COASTAL MARINE OBSERVATIONS

STATION/POSITION TIME  TEMP    WIND        PRES    WAVE
                       AIR SEA DIR/SP/G            HT/PER
                 (UTC) (F)     (DEG/KT/KT) (MB)    (FT/S)
$$

.............KEY..............
   WCI - WIND CHILL
   TC  - TEMPERATURE IN CELSIUS
   VSB - VISIBILITY IN MILES
   HX  - HEAT INDEX
   FAIR- INDICATES FEW OR NO CLOUDS BELOW 12,000 FT, WITH NO
         SIGNIFICANT WEATHER AND/OR OBSTRUCTIONS TO VISIBILITY.




USA.gov is the U.S. government's official web portal to all federal, state and local government web resources and services.